AO-07 1 07530U 74089B 17277.88466874 -.00000044 00000-0 11810-5 0 9993 2 07530 101.6451 244.4620 0012369 108.3814 306.8157 12.53629121962372 UO-11 1 14781U 84021B 17277.68127279 .00000157 00000-0 25613-4 0 9996 2 14781 097.6858 319.2929 0008153 191.1916 168.9118 14.82938282785579 LO-19 1 20442U 90005G 17277.77742457 .00000014 00000-0 21079-4 0 9991 2 20442 098.5816 213.2073 0011652 178.7210 181.4005 14.32872368447255 HUBBLE 1 20580U 90037B 17277.69520706 .00000849 00000-0 41372-4 0 9995 2 20580 028.4706 003.8665 0002460 272.4388 217.4002 15.08873904306750 MET-2/21 1 22782U 93055A 17277.65208309 .00000039 00000-0 21192-4 0 9991 2 22782 082.5463 296.7152 0023543 122.3258 017.1155 13.83802284216562 AO-27 1 22825U 93061C 17277.90500515 .00000010 00000-0 21478-4 0 9994 2 22825 098.8260 244.9075 0008768 018.4545 341.6953 14.30008370252816 IO-26 1 22826U 93061D 17277.91083261 .00000019 00000-0 25125-4 0 9992 2 22826 098.8203 244.9825 0009129 008.5325 351.6011 14.30338111253013 FO-29 1 24278U 96046B 17277.60326800 -.00000016 00000-0 17775-4 0 9996 2 24278 098.5446 146.2126 0351237 053.9336 309.3804 13.53078868043422 NOAA-15 1 25338U 98030A 17288.49529043 .00000057 00000-0 23836-4 0 9991 2 25338 98.7843 299.6383 0010164 216.8147 143.2938 14.25820166 10144 GO-32 1 25397U 98043D 17277.90664999 -.00000003 00000-0 17565-4 0 9998 2 25397 098.6183 217.9713 0002256 062.5583 297.5825 14.23630075999182 ISS 1 25544U 98067A 17278.89768778 .00004555 00000-0 76152-4 0 9999 2 25544 51.6412 206.4193 0004259 349.2960 46.7088 15.54076570 78973 NO-44 1 26931U 01043C 17277.94882673 -.00000002 00000-0 30926-4 0 9997 2 26931 067.0512 167.9935 0005989 257.4028 102.6403 14.30476536835970 SO-50 1 27607U 02058C 17277.94906682 .00000114 00000-0 37005-4 0 9990 2 27607 064.5549 150.1407 0034654 042.8809 317.4986 14.75371499795175 CO-55 1 27844U 03031E 17277.90820427 .00000091 00000-0 60752-4 0 9992 2 27844 098.6906 285.3219 0010402 035.6918 324.4953 14.22064189739875 CO-57 1 27848U 03031J 17277.93780963 .00000070 00000-0 51687-4 0 9993 2 27848 098.6998 285.6557 0010437 044.7381 315.4636 14.21675421739763 RS-22 1 27939U 03042A 17277.96183190 .00000198 00000-0 44077-4 0 9994 2 27939 097.9555 059.2679 0011896 234.4404 236.6616 14.66609267749261 NOAA-18 1 28654U 05018A 17288.48807442 .00000169 00000-0 91852-4 0 9997 2 28654 99.1784 313.5979 0014690 94.0633 266.2836 14.12354577639243 CO-58 1 28895U 05043F 17277.91391716 .00000250 00000-0 56868-4 0 9999 2 28895 097.8779 075.2345 0017500 152.6913 207.5214 14.63447858636306 Falconsat-3 1 30776U 07006E 17277.86585233 .00005651 00000-0 17432-3 0 9997 2 30776 035.4352 090.4963 0003992 250.2818 109.7477 15.33002119585094 CO-65 1 32785U 08021C 17277.79194247 .00000411 00000-0 50351-4 0 9997 2 32785 097.5616 297.0318 0013649 159.0529 201.1250 14.87967383511122 AAUSAT2 1 32788U 08021F 17277.61024843 .00000605 00000-0 61764-4 0 9990 2 32788 097.5501 309.4258 0013302 121.2793 238.9732 14.94028029511912 DO-64 1 32789U 08021G 17277.85827834 .00002039 00000-0 14660-3 0 9993 2 32789 097.5475 333.7357 0014103 089.7918 270.4925 15.05276029513263 CO-66 1 32791U 08021J 17277.62075442 .00000688 00000-0 76127-4 0 9996 2 32791 097.5568 301.5651 0014346 144.2734 215.9447 14.90333378511367 RS-30 1 32953U 08025A 17277.82302184 .00000028 00000-0 13160-3 0 9993 2 32953 082.5056 171.4912 0020104 047.0100 313.2660 12.43079303425042 PRISM 1 33493U 09002B 17277.87508033 .00000973 00000-0 92569-4 0 9995 2 33493 098.1525 164.8530 0016747 079.2473 281.0621 14.95852105472179 NOAA-19 1 33591U 09005A 17288.43141343 .00000063 00000-0 34290-4 0 9995 2 33591 99.1077 257.0461 0013872 296.1360 63.8880 14.12217483447628 TISAT-1 1 36799U 10035E 17277.90960786 .00000826 00000-0 90554-4 0 9995 2 36799 098.0750 042.9497 0011649 332.0956 027.9635 14.90529387391923 JUGNU 1 37839U 11058B 17277.01295728 .00000331 00000-0 34482-4 0 9995 2 37839 19.9605 150.6131 0018866 302.8037 193.4599 14.12595370309101 SRMSAT 1 37841U 11058D 17277.01123241 .00000327 00000-0 34669-4 0 9990 2 37841 19.9710 194.5484 0011909 195.8596 260.4868 14.10585715308664 AO-71 1 37854U 11061E 17277.73482294 .00002200 00000-0 12356-3 0 9993 2 37854 101.6938 207.0519 0166674 110.5378 251.3807 15.04466196322955 HRBE 1 37855U 11061F 17277.75353489 .00002634 00000-0 14376-3 0 9994 2 37855 101.7055 204.8140 0179459 117.7241 244.2301 15.03429631322788 ALMASAT-1 1 38078U 12006B 17277.88777921 .00030786 37900-5 33160-3 0 9992 2 38078 069.4356 196.1986 0288007 129.2869 233.4225 15.27094936301509 HORYU-2 1 38340U 12025D 17277.95598200 .00000372 00000-0 62961-4 0 9990 2 38340 098.3784 285.7595 0010582 307.0572 052.9667 14.75411429279067 RS-40 1 38735U 12041C 17277.95513808 -.00000004 00000-0 -10070-3 0 9994 2 38735 082.4726 255.7327 0017309 145.6569 214.5633 12.42574874235305 BEESAT-3 1 39134U 13015E 17277.91063852 .00002976 00000-0 15176-3 0 9995 2 39134 064.8658 232.1816 0038126 246.8678 112.8429 15.18254563245753 BEESAT-2 1 39136U 13015G 17277.87061380 .00002190 00000-0 12411-3 0 9993 2 39136 064.8700 244.5668 0033604 267.1198 092.6081 15.15436632245502 ZACUBE-1 1 39417U 13066B 17277.63200725 .00000376 00000-0 54146-4 0 9999 2 39417 097.6191 314.5072 0057753 271.9257 087.5343 14.80782795208978 TRITON-1 1 39427U 13066M 17277.89998927 .00000439 00000-0 78352-4 0 9991 2 39427 097.6372 285.9021 0114199 358.0792 001.9960 14.67527358206941 GOMX-1 1 39430U 13066Q 17277.91021345 .00000443 00000-0 89039-4 0 9998 2 39430 097.6723 268.6215 0153100 056.8306 304.7474 14.58933230205748 LO-74 1 39440U 13066AA 17277.63179382 .00000371 00000-0 59156-4 0 9990 2 39440 097.6216 302.8407 0079448 305.8969 053.4884 14.75523896207033 AO-73 1 39444U 13066AE 17277.69215308 .00000461 00000-0 63844-4 0 9998 2 39444 097.6206 315.7594 0056927 267.9924 091.4770 14.81530966207233 SPROUT 1 39770U 14029E 17277.83068936 .00001608 00000-0 18814-3 0 9999 2 39770 097.8753 016.1532 0008534 337.3563 022.7256 14.86437295182425 DUCHIFAT-1 1 40021U 14033M 17277.69874755 .00000916 00000-0 10078-3 0 9998 2 40021 097.9130 190.9955 0011936 305.4990 054.5113 14.90025366178906 NANOSATCBR1 1 40024U 14033Q 17277.75092584 .00000698 00000-0 79576-4 0 9996 2 40024 097.9082 189.7585 0011220 306.9261 053.0927 14.89331535178333 EO-79 1 40025U 14033R 17277.72232581 .00000586 00000-0 69069-4 0 9999 2 40025 097.9057 188.6053 0011476 310.2808 049.7405 14.88515866178278 DTUSAT-2 1 40030U 14033W 17277.82262482 .00000558 00000-0 66636-4 0 9995 2 40030 097.9019 187.7037 0010828 304.5274 055.4919 14.88134282178247 EO-80 1 40032U 14033Y 17277.80238320 .00000542 00000-0 65024-4 0 9992 2 40032 097.9026 187.6888 0010761 304.8800 055.1404 14.88069744178228 ANTELSAT 1 40034U 14033AA 17277.73256983 .00000397 00000-0 66988-4 0 9999 2 40034 097.8424 158.1778 0057889 301.4707 058.0851 14.73769382176521 VELOX-1 1 40057U 14034E 17277.89838837 .00000811 00000-0 12194-3 0 9996 2 40057 098.1928 019.7978 0012378 069.8653 290.3864 14.77221991175956 DAURIA DX 1 1 40071U 14037C 17277.85042380 .00000403 00000-0 59351-4 0 9995 2 40071 098.3472 033.3357 0009710 064.2760 296.0163 14.81065459175208 UKUBE-1 1 40074U 14037F 17277.75946531 .00000895 00000-0 11570-3 0 9993 2 40074 098.3574 037.6730 0005818 066.2243 293.9583 14.83600968175427 HODOYOSHI-1 1 40299U 14070B 17277.89843128 .00001752 00000-0 78467-4 0 9994 2 40299 097.3981 358.9531 0014867 069.7477 042.0587 15.22482471161632 CHUBUSAT-1 1 40300U 14070C 17277.89790510 .00001938 00000-0 89694-4 0 9993 2 40300 097.3895 355.7589 0022239 078.3942 034.0890 15.21105382161463 QSAT-EOS 1 40301U 14070D 17277.89884014 .00004354 00000-0 18214-3 0 9991 2 40301 097.3829 356.1254 0028964 073.1516 056.3155 15.23726325161533 FIREBIRD FU3 1 40377U 15003B 17277.86781001 .00003123 00000-0 13377-3 0 9998 2 40377 099.1167 123.7364 0134663 359.3009 000.8010 15.15982105147619 FIREBIRD FU4 1 40378U 15003C 17277.85865362 .00003339 00000-0 14250-3 0 9991 2 40378 099.1170 123.7701 0134872 359.2299 000.8700 15.15997961147613 GRIFEX 1 40379U 15003D 17277.82586273 .00002241 00000-0 10298-3 0 9999 2 40379 099.1203 121.0448 0141215 008.2753 352.0754 15.13412497147452 NO-84 1 40654U 15025D 17278.47159916 .00016636 00000-0 29247-3 0 01035 2 40654 054.9938 103.0949 0174628 182.4090 177.6112 15.35550785016643 NO-83 1 40655U 15025E 17278.40935404 .00037338 00000-0 50631-3 0 01171 2 40655 054.9797 071.1502 0137148 200.8154 158.7249 15.46977232016710 DEORBITSAIL 1 40719U 15032E 17277.66514993 .00000674 00000-0 10466-3 0 9996 2 40719 097.9664 169.9806 0016920 146.5221 213.7062 14.76175014120473 NUDT-PHONESAT 1 40900U 15049B 17277.93837747 .00003416 00000-0 16132-3 0 9994 2 40900 097.4436 284.3470 0013311 194.8941 165.1904 15.20030816113121 XW-2A 1 40903U 15049E 17277.87586620 .00003379 00000-0 88572-4 0 9997 2 40903 097.4140 304.9215 0013345 225.6850 134.3302 15.39321676114512 XW-2C 1 40906U 15049H 17277.90875252 .00001283 00000-0 72564-4 0 9992 2 40906 097.4575 281.2321 0014828 188.3471 171.7517 15.14755134112843 XW-2D 1 40907U 15049J 17277.95029199 .00001403 00000-0 78782-4 0 9991 2 40907 097.4545 281.0099 0014247 185.8912 174.2155 15.14873872112855 LILACSAT-2 1 40908U 15049K 17277.92817785 .00000691 00000-0 42412-4 0 9994 2 40908 097.4650 280.6551 0015884 186.0431 174.0611 15.13250394112760 XW-2F 1 40910U 15049M 17277.95191095 .00002116 00000-0 11381-3 0 9993 2 40910 097.4557 281.8741 0015173 183.1262 176.9878 15.15857916112901 XW-2B 1 40911U 15049N 17277.95926923 .00001367 00000-0 76957-4 0 9998 2 40911 097.4586 281.4489 0014148 186.2681 173.8376 15.14830396112753 DCBB 1 40912U 15049P 17277.91878234 .00002949 00000-0 14799-3 0 9998 2 40912 097.4524 283.9919 0015623 173.4957 251.1426 15.17998614112931 TW-1C 1 40926U 15051B 17277.82716637 .00014631 00000-0 31526-3 0 9992 2 40926 097.2202 316.5899 0012664 124.9961 321.8179 15.44607556113837 TW-1A 1 40928U 15051D 17277.89715484 .00006646 00000-0 18544-3 0 9992 2 40928 097.2177 311.7342 0012918 155.2539 328.5342 15.36985315113547 IO-86 1 40931U 15052B 17277.60228860 .00000778 00000-0 19268-4 0 9998 2 40931 005.9983 172.5939 0013823 350.5382 009.4532 14.76546300109168 GomX-3 1 40949U 98067HA 16292.18357804 .08527750 12374-4 77882-3 0 9992 2 40949 51.6055 106.7696 0006699 286.1344 73.8944 16.38002265 59645 LQSat 1 40958U 15057A 17277.88822217 .00000128 00000-0 27700-4 0 9997 2 40958 097.9697 351.2427 0019693 076.0237 284.3137 14.72990370107279 AO-85 1 40967U 15058D 17278.51421614 .00000880 00000-0 11831-3 0 01124 2 40967 064.7745 244.1947 0178987 037.6014 323.7456 14.75520632016072 ATHENOXAT-1 1 41168U 15077C 17277.66638328 .00004468 00000-0 21404-3 0 9992 2 41168 14.9848 89.4729 0012007 92.7387 357.9045 15.11980245 99637 ChubuSat-2 1 41338U 16012B 17277.83464373 .00000648 00000-0 44276-4 0 9996 2 41338 031.0026 135.8468 0013744 064.6355 295.5702 14.99823789089463 ChubuSat-3 1 41339U 16012C 17277.88112043 .00000782 00000-0 54550-4 0 9991 2 41339 031.0098 134.5218 0013469 071.5127 288.6963 15.00023945089450 Horyu-4 1 41340U 16012D 17277.87210759 .00001001 00000-0 70392-4 0 9992 2 41340 031.0045 131.3099 0013958 081.4374 278.7843 15.00728766089509 OUFTI-1 1 41458U 16025C 17277.93196119 .00003401 00000-0 18406-3 0 9999 2 41458 098.1749 321.7677 0171501 282.8148 075.3963 15.03688722079071 [email protected] 1 41459U 16025D 17277.89890916 .00001864 00000-0 10379-3 0 9993 2 41459 098.1755 321.6605 0171619 283.3435 074.8718 15.03487163079050 AAUSAT4 1 41460U 16025E 17277.89295888 .00003023 00000-0 16430-3 0 9995 2 41460 098.1673 321.8317 0164328 281.1300 077.1435 15.04551303079083 NODES 1 1 41477U 98067HX 17262.38431888 .17021661 12538-4 46079-3 0 9990 2 41477 51.6074 225.8859 0003017 249.6794 110.5489 16.45625800 77086 NODES 2 1 41478U 98067HY 17266.27255257 .13534231 12598-4 22876-3 0 9990 2 41478 51.6086 206.1528 0005980 262.1280 97.9071 16.47641774 77698 LO-87 1 41557U 16033B 17277.89182939 .00002581 00000-0 98589-4 0 9997 2 41557 097.4574 357.3945 0013545 346.7848 013.3034 15.27480947075175 NuSat2 1 41558U 16033C 17277.87121020 .00002643 00000-0 10147-3 0 9992 2 41558 097.4601 357.4400 0012957 345.8119 014.2754 15.27302142075169 Lapan A3 1 41603U 16040E 17277.96778100 .00000607 00000-0 31837-4 0 9996 2 41603 097.4503 338.5715 0015143 055.2430 070.9076 15.19428026071329 Swayam 1 41607U 16040J 17277.86654578 .00002969 00000-0 13559-3 0 9994 2 41607 097.4498 339.0240 0015487 057.4746 302.7983 15.21270711071276 Pratham 1 41783U 16059A 17277.94359063 .00000122 00000-0 33170-4 0 9990 2 41783 098.1555 338.1153 0033841 174.5389 185.6188 14.62864925054641 AlSat 1N 1 41789U 16059G 17277.84117672 .00000205 00000-0 48089-4 0 9990 2 41789 098.1561 338.7271 0028729 167.5488 192.6701 14.64083338054655 ScatSat 1 41790U 16059H 17277.93468506 .00000043 00000-0 22228-4 0 9994 2 41790 098.2987 324.8312 0018877 150.8996 209.3254 14.50841500054178 TY-1 1 41844U 16066D 17277.86179236 .00002973 00000-0 13140-3 0 9999 2 41844 097.4066 283.3857 0014765 208.4273 236.0786 15.22401330050020 CAS-2T 1 41845U 16066E 17277.93251428 .00000236 00000-0 47418-4 0 9998 2 41845 098.7729 296.1684 0365326 282.6054 073.4506 14.37808602047267 Pegasus-1 1 41846U 16066F 17277.90154466 .00000524 00000-0 91737-4 0 9993 2 41846 098.7773 295.8437 0367895 284.3221 071.7388 14.37139723047234 STARS-C 1 41895U 98067KR 17277.24169045 .00061711 00000-0 51333-3 0 9996 2 41895 51.6356 201.4083 0003081 58.7797 301.3502 15.69531718 45063 Tancredo 1 1 41931U 98067KT 17277.03696950 .00470993 98968-4 12663-2 0 9996 2 41931 51.6270 190.8880 0003967 192.6248 167.4660 15.93811263 40757 TO-89 1 41932U 98067KU 17277.95643456 .00026311 00000-0 28858-3 0 9992 2 41932 051.6399 202.4962 0003266 331.0891 028.9922 15.63041081040680 AOBA-V3LOX3 1 41935U 98067KX 17277.33786963 .00031968 00000-0 33934-3 0 9993 2 41935 51.6392 205.1050 0002706 339.1856 20.9028 15.63771150 40699 OSNSAT 1 41939U 98067KZ 17277.94044387 .00083508 00000-0 58236-3 0 9990 2 41939 051.6350 194.8036 0001254 346.9466 013.1500 15.73603937040142 EO-88 1 42017U 17008BX 17277.94721152 .00003023 00000-0 12978-3 0 9993 2 42017 097.4842 339.1501 0006445 182.3833 177.7374 15.23463582035192 HAVELSAT 1 42700U 98067LH 17277.87900661 .00026629 00000-0 33544-3 0 9991 2 42700 051.6396 208.7031 0005816 029.8261 330.3062 15.59413065022037 SOMP2 1 42701U 98067LJ 17277.89464900 .00024149 00000-0 30929-3 0 9994 2 42701 051.6389 208.8106 0005792 029.6432 330.4888 15.59033517022021 Columbia 1 42702U 98067LK 17277.85311349 .00064590 00000-0 65945-3 0 9999 2 42702 051.6375 207.0252 0004624 043.3936 316.7422 15.64434030021970 PHOENIX 1 42706U 98067LP 17277.88779882 .00026976 00000-0 34236-3 0 9991 2 42706 051.6392 208.7669 0001408 053.0399 307.0722 15.59222064021940 X-CubeSat 1 42707U 98067LQ 17277.88655990 .00026507 00000-0 33507-3 0 9995 2 42707 051.6382 208.7518 0001479 055.5200 304.5932 15.59337494021937 qbee 1 42708U 98067LR 17277.89094927 .00025785 00000-0 32742-3 0 9991 2 42708 051.6381 208.7812 0001443 053.5750 306.5376 15.59234120021894 ZA-AeroSat 1 42713U 98067LU 17277.86307946 .00019211 00000-0 25391-3 0 9991 2 42713 051.6392 209.3482 0000844 335.2700 024.8252 15.58364445021594 LINK 1 42714U 98067LV 17277.88888197 .00033591 00000-0 41242-3 0 9996 2 42714 051.6379 208.7640 0000659 009.7285 350.3720 15.59977237021715 UPSat 1 42716U 98067LX 17277.87407508 .00030677 00000-0 37861-3 0 9994 2 42716 051.6391 208.6712 0004377 040.0696 320.0620 15.59880783021739 SpaceCube 1 42717U 98067LY 17277.90279981 .00024981 00000-0 31915-3 0 9996 2 42717 051.6391 208.8624 0004385 037.7857 322.3443 15.59084937020975 Hoopoe 1 42718U 98067LZ 17277.88831434 .00029100 00000-0 36479-3 0 9999 2 42718 051.6386 208.7660 0004304 037.3211 322.8080 15.59497806020975 Challenger 1 42721U 98067MA 17277.29952484 .00037938 00000-0 45487-3 0 9994 2 42721 051.6375 211.5758 0006072 009.6463 350.4645 15.60522633020582 NJUST-1 1 42722U 98067MB 17277.82504960 .00022180 00000-0 29421-3 0 9999 2 42722 051.6392 209.8405 0006664 007.6964 352.4130 15.58148609020655 UNSW-EC0 1 42723U 98067MC 17277.21356394 .00030096 00000-0 38043-3 0 9994 2 42723 051.6392 212.5093 0006301 007.9076 352.2015 15.59248086020544 DUTHsat 1 42724U 98067MD 17277.88870994 .00037496 00000-0 45324-3 0 9996 2 42724 051.6389 208.7668 0005354 017.7258 342.3921 15.60320364020597 LO-90 1 42725U 98067ME 17277.50172135 .00026363 00000-0 34441-3 0 9997 2 42725 051.6393 211.4336 0005697 012.4715 347.6418 15.58451947020527 nSIGHT1 1 42726U 98067MF 17277.29266430 .00014647 00000-0 20615-3 0 9996 2 42726 051.6397 213.0393 0006202 009.6507 350.4603 15.56887451020476 QBITO 1 42728U 98067MH 17277.41523434 .00025098 00000-0 32284-3 0 9999 2 42728 051.6406 211.6129 0003498 031.1270 328.9929 15.58903942020300 Aalto-2 1 42729U 98067MJ 17277.28693450 .00028731 00000-0 36849-3 0 9999 2 42729 051.6395 212.2499 0003446 030.7672 329.3522 15.58902833020299 SUSat 1 42730U 98067MK 17277.80707321 .00025548 00000-0 33079-3 0 9997 2 42730 051.6391 209.7214 0003425 029.3476 330.7708 15.58719022020373 i-INSPIRE II 1 42731U 98067ML 17277.91161259 .00031155 00000-0 38966-3 0 9995 2 42731 051.6379 208.9095 0005033 311.7617 048.2945 15.59517502020431 PolyITAN-2-SAU 1 42732U 98067MM 17276.96212830 .00027381 00000-0 35022-3 0 9998 2 42732 051.6383 213.8187 0005316 306.9187 053.1319 15.58994261020289 SNUSAT-1 1 42733U 98067MN 17277.29411896 .00025064 00000-0 32461-3 0 9999 2 42733 051.6386 212.2882 0005404 311.4981 048.5547 15.58715495020336 ExAlta-1 1 42734U 98067MP 17277.40065121 .00027231 00000-0 34329-3 0 9992 2 42734 051.6379 211.4988 0007043 338.6296 021.4402 15.59370958020307 Aoxiang-1 1 42735U 98067MQ 17277.88534502 .00021891 00000-0 28949-3 0 9996 2 42735 051.6388 209.4917 0007188 003.6519 356.4525 15.58235095021796 BeEagleSat 1 42736U 98067MR 17277.23874448 .00024952 00000-0 32646-3 0 9992 2 42736 051.6382 212.6737 0007042 000.8910 359.2093 15.58436597020385 Atlantis 1 42737U 98067MS 17277.80716967 .00064300 00000-0 69291-3 0 9994 2 42737 051.6367 208.2094 0005283 010.9118 349.1990 15.63058284020386 CAS-4B 1 42759U 17034B 17277.87279067 .00001014 00000-0 76581-4 0 9999 2 42759 43.0194 44.6432 0008911 309.2642 195.3327 15.09031981 16877 CAS-4A 1 42761U 17034D 17277.86699753 .00001003 00000-0 75715-4 0 9995 2 42761 043.0191 044.6073 0009295 310.3414 192.5249 15.09106489016861 UCLSat 1 42765U 17036A 17277.90058225 .00002305 00000-0 10689-3 0 9993 2 42765 097.4386 336.4285 0010555 247.5037 112.5082 15.21035402016489 NIUSat 1 42766U 17036B 17277.92124049 .00002058 00000-0 99314-4 0 9992 2 42766 097.4390 336.2532 0014965 232.7058 127.2813 15.19728462015752 LituanicaSAT 2 1 42768U 17036D 17277.84245760 .00004078 00000-0 19155-3 0 9997 2 42768 097.4393 336.2027 0014996 236.3059 123.6747 15.20090061015756 InflateSail 1 42770U 17036F 17245.93730135 .99999999 00000-0 73960-1 0 9995 2 42770 097.4262 306.2162 0014869 278.7167 080.9844 16.07641391010932 Aalto 1 1 42775U 17036L 17277.82220155 .00001701 00000-0 81612-4 0 9992 2 42775 097.4388 336.2303 0013108 233.8082 126.1942 15.20189549015695 URSA MAIOR 1 42776U 17036M 17277.81953164 .00001828 00000-0 87365-4 0 9996 2 42776 097.4389 336.2370 0012944 234.1869 125.8164 15.20233659015699 Max Valier Sat 1 42778U 17036P 17277.72733799 .00002056 00000-0 96705-4 0 9990 2 42778 097.4408 336.2282 0011438 239.7834 120.2269 15.20646862015672 Pegasus 1 42784U 17036V 17277.71240578 .00002412 00000-0 11215-3 0 9992 2 42784 097.4391 336.2249 0011058 248.2855 111.7204 15.20891931015672 NUDATSat 1 42787U 17036Y 17277.89961679 .00003345 00000-0 15318-3 0 9990 2 42787 097.4392 336.4329 0010745 247.5117 112.4981 15.21137583015545 SUCHAI 1 1 42788U 17036Z 17277.90254618 .00002718 00000-0 12546-3 0 9994 2 42788 097.4389 336.4278 0010734 247.5965 112.4133 15.21034939015779 SKCUBE 1 42789U 17036AA 17277.90012267 .00002525 00000-0 11669-3 0 9998 2 42789 097.4388 336.4299 0010555 247.5193 112.4925 15.21055379015697 VZLUSAT 1 1 42790U 17036AB 17277.89411364 .00002937 00000-0 13473-3 0 9991 2 42790 097.4387 336.4348 0010297 247.9445 112.0698 15.21180285015698 VENTA 1 1 42791U 17036AC 17277.89312309 .00002315 00000-0 10696-3 0 9995 2 42791 097.4388 336.4385 0010151 248.3637 111.6518 15.21149834015688 Robusta 1B 1 42792U 17036AD 17277.89162034 .00002574 00000-0 11846-3 0 9999 2 42792 097.4385 336.4373 0010113 248.8537 111.1618 15.21187712015701 D-SAT 1 42794U 17036AF 17277.71629659 .00000459 00000-0 45466-4 0 9999 2 42794 097.6306 336.4864 0128728 052.3245 308.9567 14.90655534015660 BIRD-J 1 42820U 98067MU 17277.04935162 .00023588 00000-0 31742-3 0 9996 2 42820 051.6386 214.4076 0001446 295.8629 064.2214 15.57741502013827 BIRD-G 1 42821U 98067MV 17277.05297103 .00022966 00000-0 31055-3 0 9990 2 42821 051.6385 214.4317 0001518 300.5625 059.5217 15.57628770013804 BIRD-M 1 42822U 98067MW 17277.88770503 .00022780 00000-0 30742-3 0 9998 2 42822 051.6389 210.2569 0001514 306.9440 053.1414 15.57686973013935 BIRD-B 1 42823U 98067MX 17277.24812042 .00023839 00000-0 32177-3 0 9994 2 42823 051.6389 213.4880 0005049 321.1880 038.8749 15.57644421013833 BIRD-N 1 42824U 98067MY 17277.25159072 .00023768 00000-0 32173-3 0 9990 2 42824 051.6391 213.5115 0004912 323.0357 037.0297 15.57569595013834 TechnoSat 1 42829U 17042E 17277.90011257 .00000445 00000-0 50812-4 0 9991 2 42829 097.6075 184.6222 0013682 334.2966 025.7571 14.90682891012298 Mayak 1 42830U 17042F 17277.89618157 .00001577 00000-0 16543-3 0 9992 2 42830 097.6081 184.6337 0014055 332.4091 027.6380 14.90831881012292 OBJECT MZ 1 42910U 98067MZ 17277.42901930 .00019481 00000-0 27451-3 0 9993 2 42910 051.6381 213.1870 0006614 345.5416 014.5385 15.56612624007448 OBJECT NA 1 42911U 98067NA 17277.94282286 .00019742 00000-0 27729-3 0 9995 2 42911 051.6399 210.6277 0005975 343.4844 016.5953 15.56695032007506 OBJECT NB 1 42912U 98067NB 17277.88400569 .00020038 00000-0 28370-3 0 9998 2 42912 051.6368 210.9659 0005761 357.9776 002.1192 15.56468549007515 OBJECT NC 1 42913U 98067NC 17277.35811593 .00031557 00000-0 42819-3 0 9996 2 42913 051.6379 213.4623 0004954 013.0158 347.0960 15.57341123007438 OBJECT ND 1 42914U 98067ND 17277.88606176 .00018942 00000-0 26946-3 0 9990 2 42914 051.6393 210.9953 0005506 350.8141 009.2749 15.56382842007480 /EX